QPF
0.01 0.02 0.02 0.02 0.03 0.03 0.02 0.01 0.02 0.04 0.04 0.05 0.05 0.05 0.05 0.05 0.06 0.06 0.07 0.07 0.07 0.08 0.08 0.09 0.10 0.09 0.09 0.09 0.10 0.10 0.11 0.12 0.13 0.12 0.08 0.05 0.03 0.02 0.03 0.03 0.02 0.02 0.03
0.02 0.03 0.02 0.02 0.02 0.02 0.02 0.01 0.02 0.02 0.03 0.04 0.06 0.06 0.05 0.05 0.05 0.05 0.06 0.06 0.07 0.07 0.07 0.08 0.08 0.08 0.09 0.09 0.10 0.09 0.10 0.10 0.09 0.08 0.06 0.04 0.03 0.02 0.03 0.02 0.02 0.03 0.04
0.02 0.03 0.03 0.02 0.02 0.03 0.02 0.02 0.03 0.04 0.04 0.04 0.05 0.06 0.06 0.06 0.06 0.07 0.08 0.09 0.10 0.10 0.10 0.09 0.08 0.08 0.09 0.11 0.09 0.07 0.07 0.06 0.07 0.06 0.05 0.04 0.04 0.03 0.03 0.03 0.04 0.05 0.04
0.02 0.03 0.03 0.04 0.04 0.04 0.03 0.02 0.02 0.03 0.04 0.04 0.04 0.04 0.04 0.05 0.05 0.06 0.06 0.07 0.09 0.09 0.09 0.08 0.08 0.08 0.07 0.06 0.06 0.06 0.06 0.06 0.06 0.06 0.05 0.05 0.04 0.04 0.04 0.04 0.05 0.05 0.04
0.02 0.02 0.01 0.02 0.03 0.04 0.04 0.04 0.03 0.03 0.02 0.04 0.04 0.03 0.04 0.06 0.05 0.05 0.06 0.08 0.11 0.10 0.09 0.07 0.07 0.07 0.07 0.07 0.08 0.10 0.12 0.11 0.09 0.07 0.06 0.06 0.05 0.04 0.04 0.04 0.04 0.04 0.03
0.01 0.01 0.01 0.01 0.01 0.02 0.03 0.03 0.03 0.03 0.04 0.05 0.04 0.04 0.06 0.06 0.06 0.05 0.05 0.06 0.06 0.06 0.06 0.06 0.05 0.06 0.06 0.07 0.11 0.14 0.17 0.19 0.19 0.18 0.17 0.15 0.11 0.06 0.04 0.04 0.04 0.04 0.06
0.02 0.01 0.01 0.01 0.01 0.01 0.01 0.01 0.02 0.05 0.06 0.08 0.08 0.08 0.08 0.07 0.07 0.06 0.06 0.05 0.05 0.04 0.04 0.05 0.05 0.05 0.05 0.04 0.05 0.07 0.10 0.13 0.16 0.19 0.21 0.20 0.16 0.11 0.08 0.06 0.06 0.06 0.06
0.02 0.01 0.01 0.01 0.01 0.01 0.01 0.01 0.04 0.07 0.08 0.08 0.06 0.05 0.05 0.05 0.04 0.04 0.05 0.04 0.03 0.03 0.03 0.03 0.04 0.04 0.04 0.04 0.04 0.04 0.04 0.05 0.08 0.09 0.10 0.11 0.10 0.09 0.09 0.08 0.08 0.06 0.05
0.02 0.01 0.01 0.01 0.01 0.02 0.02 0.02 0.03 0.05 0.05 0.04 0.04 0.03 0.03 0.02 0.02 0.03 0.03 0.03 0.03 0.03 0.04 0.04 0.04 0.03 0.04 0.05 0.08 0.09 0.10 0.10 0.11 0.11 0.10 0.10 0.10 0.09 0.08 0.09 0.10 0.10 0.08
0.02 0.02 0.02 0.02 0.01 0.02 0.02 0.03 0.05 0.05 0.05 0.04 0.04 0.03 0.03 0.02 0.03 0.03 0.03 0.04 0.03 0.03 0.04 0.04 0.03 0.04 0.05 0.06 0.08 0.10 0.11 0.11 0.10 0.11 0.12 0.14 0.16 0.17 0.16 0.14 0.13 0.12 0.09
0.02 0.02 0.02 0.01 0.01 0.01 0.02 0.04 0.04 0.03 0.04 0.04 0.03 0.03 0.03 0.03 0.03 0.04 0.04 0.04 0.04 0.04 0.03 0.03 0.03 0.03 0.02 0.03 0.03 0.03 0.03 0.03 0.03 0.04 0.04 0.05 0.06 0.07 0.09 0.09 0.09 0.07 0.06
0.03 0.02 0.01 0.01 0.01 0.01 0.03 0.05 0.06 0.06 0.05 0.03 0.02 0.03 0.03 0.02 0.01 0.01 0.02 0.03 0.04 0.04 0.03 0.03 0.03 0.04 0.04 0.03 0.02 0.02 0.01 0.01 0.01 0.01 0.01 0.01 0.01 0.02 0.02 0.02 0.03 0.03 0.04
0.03 0.03 0.02 0.01 0.01 0.03 0.07 0.09 0.08 0.07 0.05 0.04 0.03 0.02 0.03 0.02 0.01 0.01 0.01 0.01 0.02 0.02 0.03 0.03 0.03 0.03 0.03 0.02 0.01 0.02 0.02 0.02 0.02 0.02 0.02 0.01 0.02 0.02 0.02 0.02 0.02 0.03 0.03
0.03 0.02 0.02 0.02 0.02 0.04 0.06 0.09 0.08 0.06 0.04 0.04 0.04 0.03 0.03 0.02 0.01 0.01 0.01 0.01 0.00 0.01 0.01 0.02 0.02 0.01 0.01 0.01 0.01 0.02 0.02 0.02 0.02 0.02 0.02 0.02 0.02 0.02 0.02 0.03 0.03 0.03 0.03
0.03 0.03 0.02 0.02 0.02 0.02 0.02 0.04 0.05 0.04 0.04 0.03 0.03 0.03 0.02 0.02 0.01 0.01 0.01 0.01 0.01 0.01 0.01 0.01 0.01 0.01 0.01 0.01 0.02 0.02 0.03 0.02 0.03 0.03 0.04 0.04 0.04 0.04 0.03 0.03 0.04 0.04 0.04
0.02 0.02 0.02 0.02 0.02 0.01 0.01 0.02 0.03 0.03 0.03 0.03 0.02 0.02 0.02 0.01 0.01 0.01 0.00 0.00 0.01 0.01 0.01 0.01 0.01 0.01 0.01 0.02 0.03 0.04 0.04 0.03 0.03 0.04 0.04 0.05 0.05 0.05 0.05 0.04 0.04 0.04 0.03
0.02 0.02 0.02 0.02 0.03 0.03 0.03 0.03 0.02 0.02 0.02 0.02 0.02 0.01 0.01 0.00 0.00 0.00 0.00 0.01 0.01 0.01 0.01 0.01 0.01 0.01 0.01 0.01 0.02 0.03 0.04 0.04 0.04 0.04 0.04 0.04 0.05 0.05 0.05 0.05 0.04 0.04 0.03
0.03 0.03 0.03 0.03 0.04 0.05 0.05 0.04 0.03 0.03 0.02 0.01 0.01 0.01 0.01 0.01 0.01 0.01 0.01 0.01 0.00 0.01 0.00 0.00 0.00 0.01 0.01 0.01 0.01 0.02 0.03 0.03 0.03 0.03 0.03 0.03 0.03 0.03 0.03 0.04 0.04 0.04 0.03
0.04 0.05 0.05 0.05 0.05 0.06 0.05 0.05 0.03 0.03 0.02 0.02 0.01 0.01 0.01 0.01 0.01 0.01 0.00 0.00 0.01 0.01 0.01 0.01 0.01 0.01 0.01 0.01 0.01 0.01 0.01 0.01 0.02 0.02 0.02 0.02 0.02 0.02 0.03 0.03 0.03 0.03 0.03
0.03 0.04 0.04 0.03 0.02 0.02 0.02 0.02 0.02 0.02 0.02 0.02 0.01 0.01 0.01 0.01 0.00 0.01 0.00 0.01 0.01 0.01 0.01 0.01 0.01 0.01 0.01 0.01 0.01 0.02 0.02 0.01 0.01 0.02 0.02 0.02 0.02 0.03 0.03 0.03 0.03 0.03 0.03
0.03 0.03 0.03 0.03 0.03 0.02 0.02 0.02 0.02 0.02 0.02 0.02 0.01 0.01 0.01 0.00 0.00 0.00 0.00 0.01 0.01 0.01 0.01 0.01 0.01 0.01 0.01 0.01 0.01 0.01 0.01 0.02 0.02 0.02 0.02 0.02 0.02 0.02 0.03 0.03 0.03 0.03 0.03
0.02 0.02 0.02 0.03 0.03 0.04 0.03 0.03 0.03 0.03 0.02 0.01 0.01 0.01 0.01 0.00 0.00 0.00 0.00 0.00 0.00 0.00 0.01 0.01 0.01 0.01 0.01 0.01 0.01 0.01 0.01 0.02 0.02 0.02 0.02 0.02 0.02 0.02 0.02 0.02 0.02 0.03 0.03
0.01 0.01 0.02 0.02 0.02 0.03 0.02 0.02 0.02 0.02 0.01 0.01 0.01 0.02 0.01 0.01 0.00 0.01 0.01 0.01 0.01 0.01 0.01 0.01 0.01 0.01 0.00 0.01 0.01 0.01 0.01 0.01 0.01 0.02 0.02 0.02 0.02 0.02 0.02 0.02 0.02 0.03 0.03
0.02 0.01 0.02 0.02 0.01 0.01 0.01 0.01 0.01 0.01 0.01 0.01 0.01 0.01 0.01 0.01 0.01 0.02 0.02 0.02 0.01 0.01 0.01 0.01 0.01 0.01 0.01 0.01 0.02 0.02 0.02 0.02 0.02 0.02 0.02 0.02 0.02 0.02 0.03 0.03 0.03 0.03 0.02
0.02 0.01 0.01 0.01 0.01 0.01 0.01 0.01 0.01 0.01 0.01 0.01 0.01 0.01 0.01 0.02 0.02 0.02 0.02 0.01 0.01 0.01 0.01 0.01 0.01 0.01 0.01 0.01 0.02 0.02 0.02 0.02 0.02 0.02 0.02 0.02 0.02 0.02 0.02 0.03 0.04 0.04 0.04
0.02 0.01 0.01 0.01 0.01 0.01 0.01 0.01 0.01 0.01 0.01 0.02 0.02 0.02 0.02 0.02 0.01 0.01 0.01 0.01 0.01 0.01 0.01 0.01 0.01 0.01 0.01 0.01 0.01 0.01 0.01 0.01 0.02 0.02 0.02 0.02 0.01 0.01 0.02 0.02 0.02 0.03 0.03
MSLP
1015.01 1015.32 1015.59 1015.78 1015.86 1015.82 1015.67 1015.45 1015.17 1014.89 1014.62 1014.38 1014.17 1013.97 1013.76 1013.52 1013.26 1012.97 1012.69 1012.43 1012.23 1012.12 1012.09 1012.15 1012.28 1012.43 1012.59 1012.72 1012.80 1012.85 1012.87 1012.91 1013.00 1013.17 1013.44 1013.81 1014.27 1014.76 1015.26 1015.69 1016.03 1016.24 1016.30
1014.97 1015.26 1015.53 1015.73 1015.84 1015.83 1015.72 1015.53 1015.29 1015.02 1014.76 1014.51 1014.27 1014.02 1013.76 1013.47 1013.15 1012.81 1012.48 1012.19 1011.95 1011.81 1011.76 1011.80 1011.90 1012.05 1012.20 1012.33 1012.42 1012.48 1012.52 1012.58 1012.69 1012.88 1013.17 1013.57 1014.05 1014.58 1015.12 1015.61 1016.02 1016.31 1016.47
1014.99 1015.28 1015.54 1015.74 1015.85 1015.86 1015.78 1015.62 1015.42 1015.18 1014.93 1014.69 1014.43 1014.16 1013.86 1013.53 1013.17 1012.79 1012.42 1012.08 1011.80 1011.61 1011.52 1011.52 1011.60 1011.71 1011.85 1011.96 1012.05 1012.12 1012.17 1012.24 1012.35 1012.55 1012.84 1013.23 1013.71 1014.25 1014.81 1015.35 1015.83 1016.21 1016.48
1015.07 1015.36 1015.61 1015.79 1015.89 1015.91 1015.85 1015.71 1015.54 1015.33 1015.11 1014.87 1014.62 1014.34 1014.03 1013.68 1013.29 1012.87 1012.46 1012.08 1011.75 1011.52 1011.37 1011.32 1011.35 1011.42 1011.53 1011.63 1011.71 1011.77 1011.83 1011.90 1012.01 1012.18 1012.45 1012.82 1013.28 1013.80 1014.37 1014.93 1015.46 1015.92 1016.30
1015.21 1015.48 1015.71 1015.87 1015.96 1015.96 1015.90 1015.78 1015.62 1015.44 1015.24 1015.03 1014.80 1014.53 1014.22 1013.85 1013.45 1013.01 1012.56 1012.14 1011.77 1011.48 1011.27 1011.17 1011.14 1011.17 1011.24 1011.32 1011.39 1011.45 1011.50 1011.56 1011.66 1011.81 1012.04 1012.36 1012.77 1013.26 1013.80 1014.37 1014.93 1015.45 1015.93
1015.38 1015.65 1015.84 1015.97 1016.02 1016.00 1015.92 1015.81 1015.66 1015.50 1015.33 1015.14 1014.93 1014.68 1014.39 1014.03 1013.62 1013.17 1012.70 1012.24 1011.82 1011.47 1011.21 1011.04 1010.95 1010.94 1010.97 1011.02 1011.08 1011.14 1011.19 1011.24 1011.32 1011.44 1011.62 1011.89 1012.24 1012.66 1013.16 1013.71 1014.28 1014.85 1015.40
1015.59 1015.83 1015.99 1016.07 1016.08 1016.02 1015.92 1015.80 1015.66 1015.51 1015.36 1015.21 1015.02 1014.80 1014.53 1014.19 1013.79 1013.34 1012.85 1012.36 1011.90 1011.50 1011.17 1010.94 1010.79 1010.72 1010.71 1010.73 1010.78 1010.83 1010.88 1010.92 1010.98 1011.07 1011.21 1011.41 1011.69 1012.06 1012.50 1013.01 1013.57 1014.16 1014.76
1015.80 1016.01 1016.13 1016.16 1016.12 1016.03 1015.91 1015.77 1015.63 1015.50 1015.37 1015.24 1015.09 1014.91 1014.66 1014.35 1013.96 1013.51 1013.02 1012.50 1012.00 1011.54 1011.16 1010.85 1010.64 1010.51 1010.45 1010.44 1010.47 1010.50 1010.55 1010.59 1010.63 1010.70 1010.80 1010.96 1011.18 1011.48 1011.86 1012.32 1012.86 1013.45 1014.08
1016.00 1016.17 1016.24 1016.23 1016.16 1016.04 1015.89 1015.75 1015.61 1015.50 1015.40 1015.30 1015.18 1015.02 1014.81 1014.52 1014.15 1013.71 1013.21 1012.67 1012.13 1011.62 1011.16 1010.79 1010.50 1010.30 1010.18 1010.13 1010.12 1010.14 1010.17 1010.21 1010.25 1010.31 1010.39 1010.51 1010.69 1010.95 1011.28 1011.71 1012.21 1012.79 1013.43
1016.14 1016.28 1016.31 1016.27 1016.17 1016.04 1015.89 1015.76 1015.64 1015.54 1015.47 1015.40 1015.31 1015.19 1015.00 1014.73 1014.38 1013.94 1013.43 1012.87 1012.28 1011.71 1011.19 1010.73 1010.36 1010.08 1009.88 1009.77 1009.71 1009.70 1009.72 1009.75 1009.80 1009.86 1009.95 1010.07 1010.24 1010.47 1010.79 1011.19 1011.67 1012.23 1012.85
1016.23 1016.32 1016.33 1016.28 1016.18 1016.05 1015.93 1015.81 1015.72 1015.66 1015.62 1015.58 1015.52 1015.42 1015.25 1015.00 1014.65 1014.21 1013.68 1013.08 1012.46 1011.83 1011.22 1010.68 1010.21 1009.83 1009.54 1009.35 1009.23 1009.18 1009.17 1009.20 1009.26 1009.34 1009.45 1009.60 1009.79 1010.05 1010.37 1010.76 1011.23 1011.77 1012.37
1016.23 1016.31 1016.31 1016.26 1016.18 1016.08 1015.99 1015.92 1015.88 1015.85 1015.84 1015.83 1015.79 1015.70 1015.54 1015.29 1014.93 1014.48 1013.93 1013.30 1012.63 1011.93 1011.25 1010.61 1010.03 1009.55 1009.16 1008.87 1008.68 1008.57 1008.53 1008.55 1008.62 1008.73 1008.89 1009.09 1009.33 1009.63 1009.98 1010.40 1010.87 1011.40 1011.97
1016.19 1016.25 1016.25 1016.23 1016.19 1016.14 1016.10 1016.09 1016.09 1016.10 1016.12 1016.12 1016.09 1016.00 1015.83 1015.57 1015.20 1014.73 1014.15 1013.49 1012.76 1012.00 1011.24 1010.51 1009.84 1009.24 1008.74 1008.35 1008.06 1007.88 1007.80 1007.80 1007.88 1008.03 1008.24 1008.50 1008.82 1009.18 1009.59 1010.05 1010.54 1011.06 1011.61
1016.12 1016.18 1016.21 1016.22 1016.22 1016.23 1016.25 1016.28 1016.33 1016.37 1016.40 1016.41 1016.37 1016.26 1016.08 1015.79 1015.40 1014.90 1014.29 1013.60 1012.84 1012.02 1011.20 1010.39 1009.62 1008.92 1008.31 1007.82 1007.43 1007.17 1007.03 1007.00 1007.08 1007.25 1007.51 1007.84 1008.23 1008.66 1009.14 1009.65 1010.17 1010.70 1011.23
1016.09 1016.15 1016.20 1016.25 1016.30 1016.35 1016.42 1016.49 1016.56 1016.62 1016.65 1016.64 1016.57 1016.44 1016.21 1015.89 1015.47 1014.95 1014.33 1013.61 1012.82 1011.99 1011.12 1010.26 1009.42 1008.64 1007.93 1007.33 1006.85 1006.50 1006.29 1006.21 1006.26 1006.43 1006.71 1007.09 1007.54 1008.05 1008.59 1009.15 1009.71 1010.26 1010.77
1016.14 1016.21 1016.27 1016.33 1016.41 1016.50 1016.59 1016.68 1016.75 1016.79 1016.80 1016.76 1016.64 1016.46 1016.19 1015.84 1015.39 1014.85 1014.22 1013.52 1012.73 1011.90 1011.03 1010.14 1009.27 1008.43 1007.65 1006.96 1006.39 1005.95 1005.64 1005.49 1005.48 1005.62 1005.89 1006.28 1006.76 1007.31 1007.90 1008.50 1009.09 1009.66 1010.19
1016.29 1016.34 1016.41 1016.48 1016.56 1016.65 1016.73 1016.81 1016.85 1016.86 1016.82 1016.72 1016.55 1016.32 1016.00 1015.62 1015.15 1014.61 1014.01 1013.33 1012.58 1011.78 1010.94 1010.07 1009.20 1008.33 1007.51 1006.76 1006.10 1005.55 1005.15 1004.90 1004.81 1004.87 1005.09 1005.45 1005.92 1006.47 1007.07 1007.70 1008.32 1008.92 1009.46
1016.51 1016.54 1016.59 1016.64 1016.70 1016.76 1016.82 1016.85 1016.85 1016.80 1016.70 1016.53 1016.31 1016.02 1015.66 1015.25 1014.79 1014.27 1013.70 1013.08 1012.40 1011.67 1010.89 1010.08 1009.23 1008.38 1007.53 1006.73 1006.00 1005.36 1004.84 1004.47 1004.26 1004.21 1004.34 1004.62 1005.03 1005.55 1006.14 1006.77 1007.41 1008.03 1008.61
1016.76 1016.76 1016.76 1016.78 1016.80 1016.81 1016.81 1016.79 1016.73 1016.61 1016.45 1016.22 1015.94 1015.60 1015.22 1014.80 1014.35 1013.87 1013.36 1012.81 1012.22 1011.58 1010.90 1010.16 1009.38 1008.55 1007.71 1006.88 1006.08 1005.34 1004.71 1004.21 1003.86 1003.68 1003.67 1003.84 1004.16 1004.61 1005.16 1005.77 1006.42 1007.06 1007.67
1016.95 1016.91 1016.87 1016.84 1016.81 1016.77 1016.71 1016.62 1016.50 1016.33 1016.10 1015.82 1015.49 1015.13 1014.74 1014.32 1013.90 1013.46 1013.02 1012.56 1012.07 1011.53 1010.95 1010.30 1009.59 1008.82 1007.99 1007.14 1006.29 1005.48 1004.73 1004.10 1003.60 1003.27 1003.12 1003.15 1003.35 1003.71 1004.20 1004.78 1005.42 1006.08 1006.74
1017.03 1016.95 1016.87 1016.79 1016.70 1016.61 1016.51 1016.37 1016.19 1015.97 1015.71 1015.40 1015.05 1014.67 1014.28 1013.88 1013.49 1013.10 1012.72 1012.34 1011.94 1011.51 1011.02 1010.46 1009.83 1009.11 1008.31 1007.46 1006.57 1005.69 1004.85 1004.10 1003.46 1002.99 1002.69 1002.58 1002.67 1002.93 1003.35 1003.88 1004.51 1005.19 1005.89
1016.95 1016.83 1016.72 1016.60 1016.48 1016.36 1016.22 1016.05 1015.85 1015.61 1015.32 1015.00 1014.64 1014.26 1013.88 1013.51 1013.15 1012.81 1012.48 1012.16 1011.84 1011.48 1011.07 1010.60 1010.03 1009.36 1008.60 1007.76 1006.85 1005.93 1005.02 1004.17 1003.44 1002.84 1002.42 1002.19 1002.17 1002.34 1002.68 1003.18 1003.78 1004.47 1005.20
1016.70 1016.56 1016.43 1016.29 1016.16 1016.02 1015.87 1015.70 1015.50 1015.26 1014.98 1014.66 1014.31 1013.95 1013.58 1013.22 1012.89 1012.57 1012.28 1012.01 1011.73 1011.42 1011.07 1010.65 1010.13 1009.52 1008.80 1007.97 1007.08 1006.14 1005.21 1004.31 1003.50 1002.83 1002.32 1002.01 1001.90 1002.00 1002.29 1002.74 1003.32 1004.01 1004.75
1016.31 1016.17 1016.03 1015.90 1015.77 1015.64 1015.50 1015.34 1015.15 1014.93 1014.67 1014.38 1014.05 1013.71 1013.36 1013.01 1012.68 1012.38 1012.10 1011.84 1011.58 1011.30 1010.98 1010.59 1010.13 1009.55 1008.88 1008.10 1007.24 1006.33 1005.40 1004.50 1003.68 1002.98 1002.43 1002.07 1001.91 1001.96 1002.20 1002.61 1003.16 1003.82 1004.55
1015.84 1015.70 1015.57 1015.45 1015.33 1015.22 1015.10 1014.97 1014.81 1014.62 1014.39 1014.12 1013.82 1013.49 1013.16 1012.82 1012.49 1012.18 1011.90 1011.63 1011.37 1011.10 1010.80 1010.45 1010.01 1009.49 1008.87 1008.15 1007.36 1006.50 1005.63 1004.77 1003.98 1003.29 1002.75 1002.38 1002.20 1002.22 1002.42 1002.79 1003.30 1003.92 1004.61
1015.32 1015.19 1015.07 1014.96 1014.86 1014.77 1014.67 1014.57 1014.44 1014.28 1014.08 1013.84 1013.56 1013.25 1012.92 1012.59 1012.26 1011.95 1011.65 1011.38 1011.12 1010.85 1010.56 1010.24 1009.85 1009.38 1008.83 1008.19 1007.48 1006.71 1005.93 1005.15 1004.42 1003.79 1003.28 1002.93 1002.74 1002.74 1002.90 1003.23 1003.68 1004.23 1004.85
Thickness
5772 5768 5764 5761 5759 5755 5752 5749 5747 5745 5744 5742 5740 5739 5739 5738 5736 5734 5733 5731 5729 5728 5727 5726 5724 5724 5724 5723 5722 5720 5717 5714 5708 5707 5706 5703 5699 5698 5696 5694 5693 5691 5688
5772 5767 5763 5760 5757 5754 5751 5748 5745 5742 5741 5739 5737 5735 5734 5733 5731 5729 5727 5727 5724 5722 5721 5720 5720 5720 5718 5718 5716 5714 5712 5709 5705 5699 5698 5696 5692 5691 5689 5687 5687 5685 5681
5771 5766 5762 5758 5755 5751 5748 5746 5742 5739 5737 5735 5733 5731 5729 5728 5726 5724 5722 5721 5720 5718 5717 5715 5714 5713 5712 5711 5710 5708 5707 5705 5701 5697 5694 5691 5688 5685 5682 5680 5679 5676 5674
5770 5765 5760 5757 5754 5750 5747 5743 5739 5736 5733 5730 5728 5726 5724 5723 5722 5719 5717 5716 5714 5712 5711 5710 5708 5707 5705 5704 5703 5701 5699 5697 5695 5692 5689 5685 5681 5678 5675 5673 5671 5669 5667
5767 5762 5758 5755 5752 5748 5744 5740 5737 5733 5730 5726 5724 5722 5720 5719 5716 5713 5712 5710 5708 5706 5704 5703 5702 5699 5697 5697 5697 5694 5692 5690 5688 5685 5682 5679 5675 5671 5669 5669 5665 5661 5658
5764 5760 5756 5752 5748 5744 5740 5736 5733 5729 5726 5722 5719 5716 5714 5712 5706 5704 5704 5704 5702 5700 5698 5696 5695 5692 5690 5687 5686 5684 5683 5683 5681 5679 5676 5672 5668 5666 5663 5661 5658 5653 5649
5759 5756 5753 5748 5744 5740 5737 5732 5728 5724 5721 5716 5713 5710 5706 5702 5698 5697 5696 5697 5696 5693 5691 5689 5689 5686 5683 5682 5679 5676 5674 5672 5670 5671 5668 5665 5661 5659 5656 5653 5649 5646 5642
5755 5752 5749 5745 5741 5736 5732 5727 5723 5719 5715 5711 5707 5704 5700 5695 5691 5690 5690 5690 5689 5686 5684 5681 5679 5677 5675 5674 5673 5671 5668 5665 5662 5661 5658 5656 5654 5650 5648 5645 5641 5636 5633
5752 5748 5745 5741 5736 5732 5727 5722 5718 5714 5709 5705 5701 5697 5693 5688 5684 5683 5682 5684 5682 5679 5677 5673 5671 5668 5664 5663 5664 5662 5660 5656 5652 5648 5646 5643 5641 5639 5637 5636 5633 5630 5625
5748 5745 5740 5736 5731 5726 5721 5717 5713 5708 5704 5700 5694 5691 5687 5682 5677 5676 5675 5679 5675 5673 5669 5666 5660 5658 5654 5653 5655 5653 5650 5648 5646 5643 5638 5635 5633 5630 5627 5625 5624 5622 5618
5745 5740 5736 5732 5727 5721 5715 5711 5706 5702 5698 5693 5688 5684 5680 5676 5672 5668 5667 5670 5668 5666 5663 5659 5653 5647 5645 5644 5644 5643 5640 5638 5638 5635 5633 5630 5627 5623 5620 5617 5614 5612 5610
5739 5734 5729 5725 5722 5716 5710 5704 5700 5696 5691 5686 5681 5677 5674 5670 5665 5661 5659 5657 5657 5656 5654 5651 5645 5639 5636 5635 5634 5631 5630 5629 5631 5629 5626 5623 5619 5616 5612 5608 5604 5600 5598
5731 5726 5722 5718 5713 5709 5704 5698 5693 5689 5686 5681 5677 5673 5669 5665 5660 5655 5651 5649 5647 5646 5644 5637 5634 5631 5630 5628 5625 5623 5623 5623 5622 5620 5617 5614 5611 5607 5603 5599 5595 5590 5588
5724 5719 5714 5710 5705 5701 5697 5693 5688 5683 5679 5675 5671 5667 5663 5658 5654 5650 5647 5644 5639 5638 5636 5631 5627 5624 5623 5621 5619 5618 5617 5615 5614 5611 5608 5605 5602 5599 5595 5592 5588 5585 5582
5716 5712 5708 5705 5700 5694 5689 5683 5680 5673 5670 5666 5664 5660 5656 5651 5643 5638 5638 5637 5635 5632 5629 5627 5624 5622 5619 5617 5615 5612 5610 5607 5604 5602 5599 5596 5593 5589 5586 5583 5579 5576 5573
5708 5705 5703 5699 5694 5689 5683 5675 5665 5663 5657 5653 5649 5648 5644 5638 5633 5630 5627 5625 5623 5620 5621 5620 5617 5615 5613 5611 5608 5605 5602 5598 5595 5593 5590 5587 5584 5580 5577 5573 5570 5567 5564
5702 5699 5697 5693 5688 5683 5678 5672 5664 5654 5647 5644 5640 5637 5633 5629 5625 5622 5619 5617 5615 5613 5614 5613 5609 5607 5604 5602 5599 5596 5593 5589 5585 5583 5580 5577 5574 5571 5568 5564 5561 5558 5555
5695 5691 5689 5685 5681 5677 5673 5668 5662 5656 5649 5642 5633 5628 5624 5621 5618 5615 5612 5610 5610 5608 5607 5605 5601 5599 5596 5593 5590 5587 5584 5581 5577 5574 5571 5568 5565 5562 5559 5557 5553 5548 5545
5687 5684 5681 5678 5675 5671 5666 5662 5657 5651 5645 5639 5632 5624 5617 5614 5611 5608 5606 5608 5607 5603 5599 5596 5593 5591 5587 5584 5580 5577 5574 5572 5568 5565 5563 5559 5557 5554 5551 5549 5545 5538 5535
5677 5672 5670 5669 5667 5664 5660 5655 5650 5645 5639 5634 5628 5623 5617 5613 5611 5606 5603 5602 5599 5596 5591 5588 5584 5582 5578 5575 5571 5568 5565 5563 5560 5557 5555 5551 5549 5546 5543 5540 5538 5534 5530
5671 5666 5660 5661 5660 5656 5653 5648 5643 5638 5633 5628 5623 5617 5609 5610 5607 5602 5599 5595 5592 5588 5584 5580 5577 5573 5570 5566 5563 5560 5557 5555 5552 5549 5546 5543 5540 5537 5535 5532 5529 5526 5523
5664 5661 5658 5655 5651 5648 5645 5641 5637 5632 5627 5622 5617 5610 5601 5603 5601 5597 5593 5588 5584 5580 5576 5572 5570 5565 5561 5558 5555 5552 5550 5547 5543 5539 5536 5534 5531 5529 5527 5524 5522 5519 5516
5657 5655 5650 5647 5643 5637 5636 5634 5630 5625 5620 5616 5610 5605 5599 5596 5593 5588 5584 5580 5576 5572 5568 5564 5560 5557 5552 5548 5545 5542 5539 5536 5533 5530 5527 5526 5524 5521 5519 5516 5513 5511 5509
5649 5646 5643 5639 5635 5632 5630 5626 5622 5618 5613 5609 5604 5599 5594 5588 5585 5580 5576 5572 5568 5564 5560 5556 5552 5548 5543 5539 5536 5533 5528 5524 5521 5520 5518 5516 5515 5513 5511 5508 5506 5504 5500
5641 5638 5635 5631 5628 5625 5622 5618 5614 5610 5605 5600 5596 5592 5587 5583 5579 5574 5569 5564 5560 5556 5552 5548 5544 5540 5535 5531 5527 5523 5517 5513 5510 5509 5508 5509 5507 5504 5502 5499 5497 5495 5492
5633 5630 5627 5624 5621 5617 5613 5609 5606 5602 5598 5593 5589 5585 5581 5576 5572 5567 5561 5556 5553 5549 5544 5541 5536 5532 5527 5523 5518 5513 5509 5505 5502 5499 5498 5500 5499 5497 5493 5492 5489 5487 5485